Location: *
(46.1006°N, 1.8394°E)
Time: 10:42:16
(UTC+00:00)

Cosmos 1420 Rocket - Pass Details

Date: 20 September 2019
Orbit: 754 x 781 km, 74.0° (Epoch: 15 October)

Event Time Altitude Azimuth Distance (km) Brightness Sun altitude
Rises 20:22:30 0° 202° (SSW) 3,241 7.2 -25.2°
Reaches altitude 10° 20:24:51 10° 203° (SSW) 2,321 6.4 -25.5°
Maximum altitude 20:30:09 82° 292° (WNW) 793 4.0 -26.3°
Drops below altitude 10° 20:35:30 10° 20° (NNE) 2,346 6.6 -27.1°
Sets 20:37:54 0° 22° (NNE) 3,279 7.4 -27.4°
